Simultaneous Nadir Overpasses (SNOs) Predictions

Prediction of SNOs between METOP-B and TERRA Satellite Orbit:

Table of predicted SNOs for the next 14.0 days since TLE Epoch: 1/25/2013
Index Date (METOP-B) Time (METOP-B) Lat,Lon (METOP-B) SZA (METOP-B ) Date (TERRA) Time (TERRA) Lat,Lon (TERRA) SZA (TERRA ) Distance(km) Time Diff (sec)
1 01/27/2013 08:00:01 -81.27, -73.55 78.10 01/27/2013 08:01:09 -81.28, -73.49 78.06 1.30 68
2 01/27/2013 08:50:41 81.28, 94.28 101.95 01/27/2013 08:50:35 81.28, 94.26 101.95 0.75 6
3 01/30/2013 03:34:25 -81.27, -7.36 78.89 01/30/2013 03:35:23 -81.27, -7.25 78.85 1.92 58
4 01/30/2013 04:25:05 81.28, 160.47 101.16 01/30/2013 04:24:49 81.27, 160.47 101.15 0.38 16
5 02/01/2013 23:08:49 -81.27, 59.19 79.67 02/01/2013 23:09:37 -81.27, 59.32 79.63 2.09 48
6 02/
